sat.trackr.live / text

‹ back to catalog

ONEWEB-0526

NORAD 54144 · 2022-138AH

PAYLOAD ACTIVE UNKNOWN

§ Identity

Operator
Country
UK
Launch date
2022-10-22
Launch site
SRILR
Launch vehicle
Mass (kg)
RCS (m²)

Purposes: comms

External: N2YO · Heavens-Above · Gunter

§ Orbital elements

Epoch: 2026-05-25T03:30:40.375296Z

Period
109.11 min
Inclination
87.9158°
Eccentricity
0.0001680
Mean motion
13.19728051 rev/d
Perigee alt
1,184.5 km
Apogee alt
1,187.0 km
Semi-major
7,563.9 km
B*
4.3787e-5
RAAN
309.5569°
Arg perigee
93.5371°
Mean anomaly
266.5954°
Rev number
17,376

§ Raw data

ONEWEB-05261 54144U 22138AH  26145.14630064  .00000030  00000+0  43787-4 0  99912 54144  87.9158 309.5569 0001680  93.5371 266.5954 13.19728051173766

JSON: /api/v1/satellites/54144 · /tle

For live sub-satellite position, see the globe view (requires WebGL).

§ Visibility from observer

Set your observer location to see the next 7 days of passes ≥ 10°. The values pass through the URL so the page stays shareable.

No JS? Fill the form by hand. The geolocation button needs JavaScript.